sat.trackr.live / text

‹ back to catalog

SPACEMOBILE-009

NORAD 69590 · 2026-139B

PAYLOAD ACTIVE UNKNOWN

§ Identity

Operator
Country
US
Launch date
2026-06-17
Launch site
AFETR
Launch vehicle
Mass (kg)
RCS (m²)

External: N2YO · Heavens-Above · Gunter

§ Orbital elements

Epoch: 2026-09-19T22:44:18.466080Z

Period
95.18 min
Inclination
52.9943°
Eccentricity
0.0002715
Mean motion
15.12884185 rev/d
Perigee alt
525.5 km
Apogee alt
529.3 km
Semi-major
6,905.5 km
B*
9.7180e-5
RAAN
192.3576°
Arg perigee
241.1599°
Mean anomaly
118.9120°
Rev number
1,432

§ Raw data

SPACEMOBILE-0091 69590U 26139B   26262.94743595  .00001430  00000+0  97180-4 0  99902 69590  52.9943 192.3576 0002715 241.1599 118.9120 15.12884185 14327

JSON: /api/v1/satellites/69590 · /tle

For live sub-satellite position, see the globe view (requires WebGL).

§ Visibility from observer

Set your observer location to see the next 7 days of passes ≥ 10°. The values pass through the URL so the page stays shareable.

No JS? Fill the form by hand. The geolocation button needs JavaScript.

§ Radio — SatNOGS DB

ModeDescriptionDownlinkUplink
FSK Mode U - FSK 2400 434.100 MHz

1 transmitter · refreshed weekly from db.satnogs.org